Regional Weather Roundup
Issued by NWS

Home | Current Version | Previous Version | Text Only | Print | Product List | Glossary Off
Versions: 1 2 3 4 5 6 7 8 9 10 11 12 13 14 15 16 17 18 19 20 21 22 23 24 25 26 27 28 29 30 31 32 33 34 35 36 37 38 39 40 41 42 43 44 45 46 47 48 49 50

000
ASUS43 KLMK 271702
RWRKY
KENTUCKY REGIONAL WEATHER ROUNDUP
NATIONAL WEATHER SERVICE LOUISVILLE KY
1200 PM EST TUE JAN 27 2015

NOTE "FAIR" INDICATES FEW OR NO CLOUDS BELOW 12,000 FEET
WITH NO SIGNIFICANT WEATHER AND/OR OBSTRUCTIONS TO VISIBILITY.

KYZ001>023-026-027-061>063-070>075-271800-
WESTERN AND SOUTH CENTRAL KENTUCKY

CITY           SKY/WX    TMP DP  RH WIND       PRES   REMARKS
PADUCAH        CLOUDY    43  30  60 N18       30.14R
HENDERSON      CLOUDY    36  28  75 N5        30.12R WCI  32
OWENSBORO      CLOUDY    34  31  89 NE8       30.11R WCI  27
HOPKINSVILLE   CLOUDY    38  31  76 N7        30.10R WCI  32
BOWLING GREEN  CLOUDY    35  31  85 N5        30.09R WCI  31
GLASGOW        NOT AVBL
$$

KYZ024-025-028>034-038-045-046-053-271800-
NORTH CENTRAL KENTUCKY

CITY           SKY/WX    TMP DP  RH WIND       PRES   REMARKS
LOUISVILLE/SDF CLOUDY    34  27  75 NE8       30.09R WCI  27
LOUISVILLE/LOU CLOUDY    32  24  72 NE7       30.09R WCI  26
FORT KNOX      NOT AVBL
$$

KYZ035>037-039>044-047>052-055>060-089>105-271800-
NORTHEAST KENTUCKY

CITY           SKY/WX    TMP DP  RH WIND       PRES   REMARKS
LEXINGTON      CLOUDY    28  18  66 N7        30.06R WCI  21
COVINGTON      PTSUNNY   26  13  57 NE6       30.08S WCI  19
FRANKFORT      CLOUDY    28  21  75 N5        30.06S WCI  23
$$

KYZ054-064>069-076>088-106>120-271800-
SOUTHEAST KENTUCKY

CITY           SKY/WX    TMP DP  RH WIND       PRES   REMARKS
JACKSON        CLOUDY    31  19  61 VRB5      29.99S WCI  26
LONDON         CLOUDY    31  21  66 N7        30.01R WCI  24
SOMERSET       NOT AVBL
MIDDLESBORO    NOT AVBL
MONTICELLO     CLOUDY    32  28  85 N7        30.07R WCI  26
$$



USA.gov is the U.S. government's official web portal to all federal, state and local government web resources and services.